Location: New Greens
(51.7702°N, 0.3379°W)
Time: 22:14:48
(UTC+00:00)

Envisat - Pass Details

Date: 01 February 2019
Orbit: 764 x 766 km, 98.2° (Epoch: 19 April)

Event Time Altitude Azimuth Distance (km) Brightness Sun altitude
Rises 05:58:37 0° 31° (NNE) 3,248 6.6 -15.9°
Reaches altitude 10° 06:02:51 10° 65° (ENE) 2,314 6.4 -15.2°
Maximum altitude 06:04:25 11° 83° (E) 2,220 6.6 -15.0°
Drops below altitude 10° 06:05:59 10° 101° (E) 2,308 6.9 -14.8°
Sets 06:10:10 0° 135° (SE) 3,227 7.2 -14.1°
